Flag for Germany Weather past 2 weeks in Völklingen, Saarland, Germany

Now
72 °F

Sunny.


Feels Like: 77 °F
Forecast: 52 / 83 °F
Wind: 7 mph from North

Location: Saarbruecken / Ensheim

Current Time: Aug 1, 2015 at 2:16:47 PM

Latest Report: Aug 1, 2015 at 1:20 PM


Visibility: 10 mi

Pressure: 29.98 "Hg

Humidity: 38%

Dew point: 45 °F

Location of VölklingenLocation

Historic Weather in Völklingen — Graph

°F

Völklingen temperature yesterday

Maximum temperature yesterday: 70 °F (at 3:20 PM)
Minimum temperature yesterday: 45 °F (at 3:20 AM)
Average temperature yesterday: 59 °F

Past Weeks' High & Low Weather Summary

 TemperatureHumidityPressure
High93 °F (Jul 17, 4:50 PM)94% (Jul 25, 3:50 AM)30.12 "Hg (Jul 25, 3:50 AM)
Low45 °F (Jul 26, 5:20 AM)26% (Jul 17, 3:20 PM)29.68 "Hg (Jul 24, 8:50 PM)
Average67 °F61%29.94 "Hg
* Reported Jul 17 1:20 PM — Aug 1 1:20 PM, Völklingen, Weather by CustomWeather, © 2015

Note: Actual official high and low records may vary slightly from our data, if they occured in-between our weather recording intervals... More about our weather records

Advertising

Völklingen weather history for previous 24 hours

 ConditionsComfort  
Time TempWeatherWind HumidityBarometerVisibility
1:20 PM
Sat, Aug 1
72 °FSunny.7 mph38%29.98 "Hg10 mi
12:50 PM73 °FPassing clouds.6 mph36%29.95 "HgN/A
12:20 PM70 °FPassing clouds.6 mph38%29.95 "HgN/A
11:50 AM70 °FSunny.3 mph40%29.98 "Hg10 mi
11:20 AM70 °FSunny.3 mph40%29.98 "Hg10 mi
10:50 AM68 °FPassing clouds.5 mph43%29.98 "HgN/A
10:20 AM66 °FPassing clouds.5 mph46%29.98 "HgN/A
9:50 AM64 °FPassing clouds.3 mph49%29.98 "HgN/A
9:20 AM63 °FPassing clouds.5 mph49%29.95 "HgN/A
8:50 AM61 °FSunny.7 mph52%29.95 "Hg10 mi
8:20 AM57 °FSunny.6 mph59%29.95 "Hg10 mi
7:50 AM57 °FPassing clouds.6 mph59%29.95 "HgN/A
7:20 AM57 °FPassing clouds.6 mph59%29.95 "HgN/A
6:50 AM55 °FPassing clouds.9 mph63%29.92 "HgN/A
6:20 AM57 °FClear.12 mph55%29.92 "Hg10 mi
5:50 AM57 °FClear.10 mph55%29.92 "Hg10 mi
5:20 AM57 °FClear.12 mph55%29.92 "Hg10 mi
4:50 AM57 °FClear.12 mph55%29.92 "Hg10 mi
4:20 AM59 °FClear.10 mph51%29.92 "Hg10 mi
3:50 AM59 °FClear.10 mph55%29.92 "Hg10 mi
3:20 AM59 °FClear.12 mph51%29.92 "Hg10 mi
2:50 AM59 °FClear.12 mph51%29.92 "Hg10 mi
2:20 AM59 °FClear.12 mph51%29.92 "Hg10 mi
1:50 AM61 °FClear.10 mph48%29.95 "Hg10 mi
1:20 AM61 °FClear.10 mph48%29.95 "Hg10 mi
12:50 AM61 °FClear.9 mph52%29.95 "Hg10 mi
12:20 AM61 °FClear.10 mph52%29.95 "Hg10 mi
11:50 PM
Fri, Jul 31
63 °FClear.10 mph49%29.95 "Hg10 mi
11:20 PM63 °FClear.12 mph45%29.95 "Hg10 mi
10:50 PM63 °FClear.9 mph49%29.95 "Hg10 mi
10:20 PM63 °FClear.7 mph49%29.98 "Hg10 mi
9:50 PM63 °FSunny.8 mph49%29.98 "Hg10 mi
9:20 PM64 °FSunny.9 mph46%29.95 "Hg10 mi
8:50 PM66 °FSunny.8 mph40%29.95 "Hg10 mi
8:20 PM66 °FPassing clouds.9 mph40%29.95 "HgN/A
7:50 PM68 °FPassing clouds.9 mph38%29.98 "HgN/A
7:20 PM70 °FPassing clouds.10 mph35%29.98 "HgN/A
6:50 PM70 °FPassing clouds.10 mph35%29.98 "HgN/A
6:20 PM70 °FPassing clouds.9 mph35%29.98 "HgN/A
5:50 PM70 °FPassing clouds.9 mph33%29.98 "HgN/A
5:20 PM70 °FPassing clouds.8 mph35%30.01 "HgN/A
4:50 PM70 °FPassing clouds.12 mph35%30.01 "HgN/A
4:20 PM70 °FPassing clouds.9 mph35%30.01 "HgN/A
3:50 PM70 °FPassing clouds.10 mph35%30.01 "HgN/A
3:20 PM70 °FPassing clouds.12 mph35%30.04 "HgN/A
2:50 PM68 °FPartly sunny.13 mph40%30.04 "HgN/A
2:20 PM66 °FPartly sunny.13 mph43%30.04 "HgN/A
Weather by CustomWeather, © 2015

See weather overviewHow to use our weather pages